Time,TemperatureF,DewpointF,PressureIn,WindDirection,WindDirectionDegrees,WindSpeedMPH,WindSpeedGustMPH,Humidity,HourlyPrecipIn,Conditions,Clouds,dailyrainin,SoftwareType,DateUTC
2013-01-22 00:02:00,30.0,19.0,30.25,North,4,0.0,0.0,64,0.00,,,0.00,,2013-01-22 06:02:00,
2013-01-22 00:12:00,30.0,19.0,30.25,North,4,0.0,0.0,64,0.00,,,0.00,,2013-01-22 06:12:00,
2013-01-22 00:22:00,30.0,20.0,30.25,North,4,0.0,0.0,65,0.00,,,0.00,,2013-01-22 06:22:00,
2013-01-22 00:32:00,30.0,20.0,30.25,North,4,0.0,0.0,66,0.00,,,0.00,,2013-01-22 06:32:00,
2013-01-22 00:42:00,30.0,20.0,30.25,North,4,0.0,0.0,66,0.00,,,0.00,,2013-01-22 06:42:00,
2013-01-22 00:52:00,29.0,19.0,30.26,WNW,300,0.0,0.0,66,0.00,,,0.00,,2013-01-22 06:52:00,
2013-01-22 01:02:00,29.0,19.0,30.25,WNW,302,0.0,0.0,67,0.00,,,0.00,,2013-01-22 07:02:00,
2013-01-22 01:12:00,29.0,19.0,30.25,WNW,302,0.0,0.0,67,0.00,,,0.00,,2013-01-22 07:12:00,
2013-01-22 01:22:00,29.0,19.0,30.25,NNW,338,0.0,0.0,67,0.00,,,0.00,,2013-01-22 07:22:00,
2013-01-22 01:32:00,29.0,19.0,30.25,NW,318,0.0,0.0,67,0.00,,,0.00,,2013-01-22 07:32:00,
2013-01-22 01:42:00,29.0,19.0,30.25,NW,318,0.0,0.0,67,0.00,,,0.00,,2013-01-22 07:42:00,
2013-01-22 01:53:00,29.0,19.0,30.25,NNW,335,0.0,0.0,67,0.00,,,0.00,,2013-01-22 07:53:00,
2013-01-22 02:02:00,28.0,19.0,30.26,NNW,335,0.0,0.0,68,0.00,,,0.00,,2013-01-22 08:02:00,
2013-01-22 02:12:00,28.0,19.0,30.26,NNW,335,0.0,0.0,68,0.00,,,0.00,,2013-01-22 08:12:00,
2013-01-22 02:22:00,28.0,19.0,30.27,NNW,335,0.0,0.0,69,0.00,,,0.00,,2013-01-22 08:22:00,
2013-01-22 02:32:00,27.0,19.0,30.27,NNW,335,0.0,0.0,71,0.00,,,0.00,,2013-01-22 08:32:00,
2013-01-22 02:42:00,27.0,19.0,30.27,NNW,335,0.0,0.0,71,0.00,,,0.00,,2013-01-22 08:42:00,
2013-01-22 02:52:00,26.0,18.0,30.27,NNW,335,0.0,0.0,72,0.00,,,0.00,,2013-01-22 08:52:00,
2013-01-22 03:02:00,26.0,18.0,30.27,NNW,335,0.0,0.0,72,0.00,,,0.00,,2013-01-22 09:02:00,
2013-01-22 03:12:00,26.0,18.0,30.27,NNW,335,0.0,0.0,72,0.00,,,0.00,,2013-01-22 09:12:00,
2013-01-22 03:22:00,27.0,19.0,30.27,NW,321,0.0,0.0,72,0.00,,,0.00,,2013-01-22 09:22:00,
2013-01-22 03:32:00,27.0,19.0,30.27,NW,321,0.0,0.0,72,0.00,,,0.00,,2013-01-22 09:32:00,
2013-01-22 03:42:00,27.0,19.0,30.27,NW,321,0.0,0.0,72,0.00,,,0.00,,2013-01-22 09:42:00,
2013-01-22 03:52:00,27.0,19.0,30.27,NW,321,0.0,0.0,71,0.00,,,0.00,,2013-01-22 09:52:00,
2013-01-22 04:02:00,27.0,19.0,30.27,NW,314,2.0,0.0,72,0.00,,,0.00,,2013-01-22 10:02:00,
2013-01-22 04:12:00,27.0,19.0,30.27,NW,314,2.0,0.0,72,0.00,,,0.00,,2013-01-22 10:12:00,
2013-01-22 04:22:00,27.0,19.0,30.27,North,359,0.0,0.0,72,0.00,,,0.00,,2013-01-22 10:22:00,
2013-01-22 04:32:00,27.0,19.0,30.27,NE,38,0.0,5.0,72,0.00,,,0.00,,2013-01-22 10:32:00,
2013-01-22 04:42:00,27.0,19.0,30.27,NE,38,0.0,5.0,72,0.00,,,0.00,,2013-01-22 10:42:00,
2013-01-22 04:52:00,26.0,18.0,30.27,North,359,0.0,5.0,72,0.00,,,0.00,,2013-01-22 10:52:00,
2013-01-22 05:02:00,26.0,18.0,30.28,North,4,1.0,0.0,72,0.00,,,0.00,,2013-01-22 11:02:00,
2013-01-22 05:12:00,26.0,18.0,30.28,North,4,1.0,0.0,72,0.00,,,0.00,,2013-01-22 11:12:00,
2013-01-22 05:22:00,26.0,19.0,30.29,North,4,4.0,7.0,73,0.00,,,0.00,,2013-01-22 11:22:00,
2013-01-22 05:33:00,26.0,19.0,30.29,North,4,4.0,7.0,73,0.00,,,0.00,,2013-01-22 11:33:00,
2013-01-22 05:42:00,26.0,19.0,30.29,North,4,4.0,7.0,73,0.00,,,0.00,,2013-01-22 11:42:00,
2013-01-22 05:53:00,25.0,18.0,30.29,North,11,6.0,7.0,75,0.00,,,0.00,,2013-01-22 11:53:00,
2013-01-22 06:03:00,25.0,18.0,30.29,North,359,0.0,0.0,75,0.00,,,0.00,,2013-01-22 12:03:00,
2013-01-22 06:12:00,25.0,18.0,30.29,North,359,0.0,0.0,75,0.00,,,0.00,,2013-01-22 12:12:00,
2013-01-22 06:23:00,24.0,17.0,30.30,NE,38,0.0,0.0,75,0.00,,,0.00,,2013-01-22 12:23:00,
2013-01-22 06:33:00,24.0,17.0,30.30,NE,38,0.0,0.0,75,0.00,,,0.00,,2013-01-22 12:33:00,
2013-01-22 06:43:00,24.0,18.0,30.31,North,10,2.0,0.0,76,0.00,,,0.00,,2013-01-22 12:43:00,
2013-01-22 06:53:00,24.0,17.0,30.32,North,0,1.0,0.0,75,0.00,,,0.00,,2013-01-22 12:53:00,
2013-01-22 07:03:00,24.0,17.0,30.32,NNE,15,0.0,0.0,75,0.00,,,0.00,,2013-01-22 13:03:00,
2013-01-22 07:13:00,24.0,17.0,30.32,NNE,15,0.0,0.0,75,0.00,,,0.00,,2013-01-22 13:13:00,
2013-01-22 07:23:00,24.0,17.0,30.32,NNE,15,0.0,0.0,75,0.00,,,0.00,,2013-01-22 13:23:00,
2013-01-22 07:33:00,24.0,17.0,30.33,NNW,339,0.0,0.0,75,0.00,,,0.00,,2013-01-22 13:33:00,
2013-01-22 07:43:00,24.0,17.0,30.33,NNW,339,0.0,0.0,75,0.00,,,0.00,,2013-01-22 13:43:00,
2013-01-22 07:53:00,24.0,17.0,30.33,NNE,20,1.0,0.0,75,0.00,,,0.00,,2013-01-22 13:53:00,
2013-01-22 08:03:00,24.0,17.0,30.33,NNE,20,1.0,0.0,75,0.00,,,0.00,,2013-01-22 14:03:00,
2013-01-22 08:12:00,24.0,17.0,30.33,NNE,20,1.0,0.0,75,0.00,,,0.00,,2013-01-22 14:12:00,
2013-01-22 08:23:00,27.0,19.0,30.35,NW,325,6.0,6.0,72,0.00,,,0.00,,2013-01-22 14:23:00,
2013-01-22 08:33:00,28.0,19.0,30.35,NE,35,8.0,11.0,69,0.00,,,0.00,,2013-01-22 14:33:00,
2013-01-22 08:44:00,28.0,19.0,30.35,NE,35,8.0,11.0,69,0.00,,,0.00,,2013-01-22 14:44:00,
2013-01-22 08:54:00,28.0,19.0,30.36,North,3,4.0,6.0,68,0.00,,,0.00,,2013-01-22 14:54:00,
2013-01-22 09:03:00,29.0,19.0,30.36,North,4,7.0,7.0,66,0.00,,,0.00,,2013-01-22 15:03:00,
2013-01-22 09:12:00,29.0,19.0,30.36,North,4,7.0,7.0,66,0.00,,,0.00,,2013-01-22 15:12:00,
2013-01-22 09:23:00,30.0,20.0,30.37,North,359,4.0,0.0,65,0.00,,,0.00,,2013-01-22 15:23:00,
2013-01-22 09:34:00,30.0,19.0,30.38,NNW,345,5.0,5.0,64,0.00,,,0.00,,2013-01-22 15:34:00,
2013-01-22 09:43:00,30.0,19.0,30.38,NNW,345,5.0,5.0,64,0.00,,,0.00,,2013-01-22 15:43:00,
2013-01-22 09:53:00,31.0,20.0,30.37,ENE,70,7.0,7.0,62,0.00,,,0.00,,2013-01-22 15:53:00,
2013-01-22 10:03:00,31.0,19.0,30.38,NNE,25,0.0,6.0,61,0.00,,,0.00,,2013-01-22 16:03:00,
2013-01-22 10:13:00,31.0,19.0,30.38,NNE,25,0.0,6.0,61,0.00,,,0.00,,2013-01-22 16:13:00,
2013-01-22 10:23:00,34.0,21.0,30.39,NNE,14,3.0,0.0,58,0.00,,,0.00,,2013-01-22 16:23:00,
2013-01-22 10:33:00,35.0,21.0,30.38,NNW,343,3.0,0.0,57,0.00,,,0.00,,2013-01-22 16:33:00,
2013-01-22 10:43:00,35.0,21.0,30.38,NNW,343,3.0,0.0,57,0.00,,,0.00,,2013-01-22 16:43:00,
2013-01-22 10:54:00,36.0,21.0,30.38,NE,34,2.0,3.0,54,0.00,,,0.00,,2013-01-22 16:54:00,
2013-01-22 11:03:00,36.0,20.0,30.38,NNE,27,2.0,7.0,52,0.00,,,0.00,,2013-01-22 17:03:00,
2013-01-22 11:12:00,36.0,20.0,30.38,NNE,27,2.0,7.0,52,0.00,,,0.00,,2013-01-22 17:12:00,
2013-01-22 11:23:00,38.0,22.0,30.37,North,8,0.0,0.0,51,0.00,,,0.00,,2013-01-22 17:23:00,
2013-01-22 11:33:00,38.0,20.0,30.37,NNE,18,4.0,11.0,48,0.00,,,0.00,,2013-01-22 17:33:00,
2013-01-22 11:44:00,38.0,20.0,30.37,NNE,18,4.0,11.0,48,0.00,,,0.00,,2013-01-22 17:44:00,
2013-01-22 11:53:00,38.0,21.0,30.36,NNE,27,6.0,6.0,50,0.00,,,0.00,,2013-01-22 17:53:00,
2013-01-22 12:03:00,40.0,22.0,30.35,NE,38,2.0,3.0,48,0.00,,,0.00,,2013-01-22 18:03:00,
2013-01-22 12:12:00,40.0,22.0,30.35,NE,38,2.0,3.0,48,0.00,,,0.00,,2013-01-22 18:12:00,
2013-01-22 12:23:00,40.0,21.0,30.34,NW,309,0.0,3.0,47,0.00,,,0.00,,2013-01-22 18:23:00,
2013-01-22 12:33:00,39.0,20.0,30.34,West,278,0.0,0.0,47,0.00,,,0.00,,2013-01-22 18:33:00,
2013-01-22 12:43:00,39.0,20.0,30.34,West,278,0.0,0.0,47,0.00,,,0.00,,2013-01-22 18:43:00,
2013-01-22 12:54:00,39.0,21.0,30.34,WNW,284,1.0,0.0,48,0.00,,,0.00,,2013-01-22 18:54:00,
2013-01-22 13:03:00,39.0,21.0,30.34,WNW,284,1.0,0.0,48,0.00,,,0.00,,2013-01-22 19:03:00,
2013-01-22 13:13:00,39.0,21.0,30.34,WNW,284,1.0,0.0,48,0.00,,,0.00,,2013-01-22 19:13:00,
2013-01-22 13:23:00,40.0,21.0,30.33,NNE,20,7.0,0.0,46,0.00,,,0.00,,2013-01-22 19:23:00,
2013-01-22 13:34:00,41.0,22.0,30.33,NNE,28,2.0,0.0,46,0.00,,,0.00,,2013-01-22 19:34:00,
2013-01-22 13:43:00,41.0,22.0,30.33,NNE,28,2.0,0.0,46,0.00,,,0.00,,2013-01-22 19:43:00,
2013-01-22 13:54:00,41.0,22.0,30.33,NNE,28,2.0,0.0,46,0.00,,,0.00,,2013-01-22 19:54:00,
2013-01-22 14:03:00,41.0,21.0,30.32,West,276,0.0,0.0,45,0.00,,,0.00,,2013-01-22 20:03:00,
2013-01-22 14:12:00,41.0,21.0,30.32,West,276,0.0,0.0,45,0.00,,,0.00,,2013-01-22 20:12:00,
2013-01-22 14:23:00,41.0,21.0,30.32,West,276,0.0,0.0,45,0.00,,,0.00,,2013-01-22 20:23:00,
2013-01-22 14:33:00,42.0,22.0,30.32,WNW,283,0.0,0.0,45,0.00,,,0.00,,2013-01-22 20:33:00,
2013-01-22 14:42:00,42.0,22.0,30.32,WNW,283,0.0,0.0,45,0.00,,,0.00,,2013-01-22 20:42:00,
2013-01-22 14:53:00,42.0,22.0,30.32,NW,308,1.0,0.0,45,0.00,,,0.00,,2013-01-22 20:53:00,
2013-01-22 15:03:00,42.0,22.0,30.31,West,260,0.0,0.0,44,0.00,,,0.00,,2013-01-22 21:03:00,
2013-01-22 15:13:00,42.0,22.0,30.31,West,260,0.0,0.0,44,0.00,,,0.00,,2013-01-22 21:13:00,
2013-01-22 15:22:00,42.0,22.0,30.31,SSW,200,0.0,0.0,44,0.00,,,0.00,,2013-01-22 21:22:00,
2013-01-22 15:33:00,39.0,20.0,30.32,WSW,257,2.0,4.0,46,0.00,,,0.00,,2013-01-22 21:33:00,
2013-01-22 15:43:00,39.0,20.0,30.32,WSW,257,2.0,4.0,46,0.00,,,0.00,,2013-01-22 21:43:00,
2013-01-22 15:52:00,38.0,20.0,30.32,NW,304,2.0,0.0,47,0.00,,,0.00,,2013-01-22 21:52:00,
2013-01-22 16:03:00,38.0,20.0,30.32,NNW,345,6.0,6.0,48,0.00,,,0.00,,2013-01-22 22:03:00,
2013-01-22 16:12:00,38.0,20.0,30.32,NNW,345,6.0,6.0,48,0.00,,,0.00,,2013-01-22 22:12:00,
2013-01-22 16:22:00,38.0,20.0,30.32,NW,305,0.0,0.0,48,0.00,,,0.00,,2013-01-22 22:22:00,
2013-01-22 16:32:00,38.0,20.0,30.32,NW,305,0.0,0.0,48,0.00,,,0.00,,2013-01-22 22:32:00,
2013-01-22 16:43:00,38.0,21.0,30.32,NW,319,1.0,0.0,49,0.00,,,0.00,,2013-01-22 22:43:00,
2013-01-22 16:53:00,37.0,20.0,30.32,NW,318,0.0,0.0,49,0.00,,,0.00,,2013-01-22 22:53:00,
2013-01-22 17:02:00,37.0,20.0,30.33,NW,305,0.0,0.0,50,0.00,,,0.00,,2013-01-22 23:02:00,
2013-01-22 17:12:00,37.0,20.0,30.33,NW,305,0.0,0.0,50,0.00,,,0.00,,2013-01-22 23:12:00,
2013-01-22 17:23:00,37.0,20.0,30.34,NW,305,0.0,0.0,50,0.00,,,0.00,,2013-01-22 23:23:00,
2013-01-22 17:33:00,36.0,21.0,30.32,NW,305,0.0,0.0,53,0.00,,,0.00,,2013-01-22 23:33:00,
2013-01-22 17:43:00,36.0,21.0,30.32,NW,305,0.0,0.0,53,0.00,,,0.00,,2013-01-22 23:43:00,
2013-01-22 17:52:00,36.0,21.0,30.32,NW,305,0.0,0.0,53,0.00,,,0.00,,2013-01-22 23:52:00,
2013-01-22 18:03:00,36.0,21.0,30.32,NW,305,0.0,0.0,54,0.00,,,0.00,,2013-01-23 00:03:00,
2013-01-22 18:12:00,36.0,21.0,30.32,NW,305,0.0,0.0,54,0.00,,,0.00,,2013-01-23 00:12:00,
2013-01-22 18:22:00,36.0,21.0,30.32,NW,305,0.0,0.0,55,0.00,,,0.00,,2013-01-23 00:22:00,
2013-01-22 18:33:00,36.0,22.0,30.33,NW,305,0.0,0.0,56,0.00,,,0.00,,2013-01-23 00:33:00,
2013-01-22 18:43:00,36.0,22.0,30.33,NW,305,0.0,0.0,56,0.00,,,0.00,,2013-01-23 00:43:00,
2013-01-22 18:52:00,36.0,22.0,30.32,NW,305,0.0,0.0,57,0.00,,,0.00,,2013-01-23 00:52:00,
2013-01-22 19:03:00,36.0,23.0,30.32,NW,305,0.0,0.0,58,0.00,,,0.00,,2013-01-23 01:03:00,
2013-01-22 19:13:00,36.0,23.0,30.32,NW,305,0.0,0.0,58,0.00,,,0.00,,2013-01-23 01:13:00,
2013-01-22 19:22:00,36.0,22.0,30.33,NW,305,0.0,0.0,57,0.00,,,0.00,,2013-01-23 01:22:00,
2013-01-22 19:33:00,36.0,22.0,30.33,NW,305,0.0,0.0,57,0.00,,,0.00,,2013-01-23 01:33:00,
2013-01-22 19:43:00,36.0,22.0,30.33,NW,305,0.0,0.0,57,0.00,,,0.00,,2013-01-23 01:43:00,
2013-01-22 19:53:00,36.0,22.0,30.32,NW,305,0.0,0.0,56,0.00,,,0.00,,2013-01-23 01:53:00,
2013-01-22 20:03:00,36.0,22.0,30.32,NW,305,0.0,0.0,56,0.00,,,0.00,,2013-01-23 02:03:00,
2013-01-22 20:12:00,36.0,22.0,30.32,NW,305,0.0,0.0,56,0.00,,,0.00,,2013-01-23 02:12:00,
2013-01-22 20:23:00,36.0,22.0,30.32,NW,305,0.0,0.0,56,0.00,,,0.00,,2013-01-23 02:23:00,
2013-01-22 20:33:00,36.0,22.0,30.32,NW,305,0.0,0.0,56,0.00,,,0.00,,2013-01-23 02:33:00,
2013-01-22 20:42:00,36.0,22.0,30.32,NW,305,0.0,0.0,56,0.00,,,0.00,,2013-01-23 02:42:00,
2013-01-22 20:53:00,36.0,22.0,30.32,NW,305,0.0,0.0,56,0.00,,,0.00,,2013-01-23 02:53:00,
2013-01-22 21:03:00,35.0,21.0,30.32,NNE,21,0.0,0.0,56,0.00,,,0.00,,2013-01-23 03:03:00,
2013-01-22 21:12:00,35.0,21.0,30.32,NNE,21,0.0,0.0,56,0.00,,,0.00,,2013-01-23 03:12:00,
2013-01-22 21:23:00,35.0,21.0,30.32,NNE,21,0.0,0.0,57,0.00,,,0.00,,2013-01-23 03:23:00,
2013-01-22 21:33:00,35.0,21.0,30.32,North,8,0.0,0.0,57,0.00,,,0.00,,2013-01-23 03:33:00,
2013-01-22 21:42:00,35.0,21.0,30.32,North,8,0.0,0.0,57,0.00,,,0.00,,2013-01-23 03:42:00,
2013-01-22 21:53:00,35.0,22.0,30.32,North,359,0.0,0.0,58,0.00,,,0.00,,2013-01-23 03:53:00,
2013-01-22 22:03:00,35.0,23.0,30.31,North,359,0.0,0.0,60,0.00,,,0.00,,2013-01-23 04:03:00,
2013-01-22 22:12:00,35.0,23.0,30.31,North,359,0.0,0.0,60,0.00,,,0.00,,2013-01-23 04:12:00,
2013-01-22 22:22:00,35.0,23.0,30.31,NNE,20,0.0,0.0,60,0.00,,,0.00,,2013-01-23 04:22:00,
2013-01-22 22:32:00,34.0,22.0,30.32,NNE,20,0.0,0.0,61,0.00,,,0.00,,2013-01-23 04:32:00,
2013-01-22 22:43:00,34.0,22.0,30.32,NNE,20,0.0,0.0,61,0.00,,,0.00,,2013-01-23 04:43:00,
2013-01-22 22:52:00,34.0,22.0,30.32,NNE,20,0.0,0.0,62,0.00,,,0.00,,2013-01-23 04:52:00,
2013-01-22 23:03:00,34.0,22.0,30.32,NNE,20,0.0,0.0,62,0.00,,,0.00,,2013-01-23 05:03:00,
2013-01-22 23:12:00,34.0,22.0,30.32,NNE,20,0.0,0.0,62,0.00,,,0.00,,2013-01-23 05:12:00,
2013-01-22 23:22:00,34.0,22.0,30.32,NNE,20,0.0,0.0,62,0.00,,,0.00,,2013-01-23 05:22:00,
2013-01-22 23:33:00,34.0,22.0,30.32,NNE,20,0.0,0.0,62,0.00,,,0.00,,2013-01-23 05:33:00,
2013-01-22 23:43:00,34.0,22.0,30.32,NNE,20,0.0,0.0,62,0.00,,,0.00,,2013-01-23 05:43:00,
2013-01-22 23:53:00,34.0,22.0,30.32,NNE,20,0.0,0.0,62,0.00,,,0.00,,2013-01-23 05:53:00,